Location: Arthez
(43.0833°N, 0.2500°W)
Time: 11:44:52
(UTC+00:00)

Cosmos 304 Rocket - Pass Details

Date: 07 June 2022
Orbit: 679 x 686 km, 74.0° (Epoch: 01 July)

Event Time Altitude Azimuth Distance (km) Brightness Sun altitude
Exits shadow 00:26:04 - 268° (W) 2,351 6.4 -23.9°
Reaches altitude 10° 00:27:05 10° 278° (W) 2,136 6.3 -23.9°
Maximum altitude 00:29:27 13° 308° (NW) 1,912 6.4 -23.8°
Drops below altitude 10° 00:31:49 10° 337° (NNW) 2,142 7.1 -23.8°
Sets 00:35:22 0° 4° (N) 3,062 8.6 -23.7°
